{"data":{"norad_id":61778,"epoch":"2026-05-25T03:24:10.236096Z","epoch_age_seconds":69708,"freshness":"FRESH","line1":"1 61778U 24199AV  26145.14178514  .00045572  00000+0  66181-3 0  9990","line2":"2 61778  97.2937  20.3736 0007440  30.5929 329.5758 15.55648032130835","mean_motion":15.55648032,"eccentricity":0.000744,"inclination_deg":97.2937,"raan_deg":20.3736,"arg_perigee_deg":30.5929,"mean_anomaly_deg":329.5758,"bstar":0.00066181,"rev_number":13083,"period_min":92.565925606493,"perigee_km":395.22639981658,"apogee_km":405.31266873958,"semimajor_km":6778.4065342781,"source":"CELESTRAK","updated_at":"2026-05-25T13:38:02.561390Z"}}